Hourly Data Report for October 05, 2017

All times are specified in Local Standard Time (LST). Add 1 hour to adjust for Daylight Saving Time where and when it is observed.

ESKASONI FIRST NATION AUTOMATIC WEATHER STATION
NOVA SCOTIA

45°55'14.000" N
60°38'49.000" W
28.00 m
8201780
71175
AEI

Download Data

Hourly Data (October 2017)
Hourly Data Report for October 5, 2017
Temp Definition
°C
Dew Point Temp Definition
°C
Rel Hum Definition
%
Wind Dir Definition
10's deg

Wind Spd Definition
km/h
Visibility Definition
km
Stn Press Definition
kPa
Hmdx Definition


Wind Chill Definition


Weather Definition


TIME
00:00 15.4 13.4 87 21 19   100.93     LegendNANA
01:00 15.2 12.6 84 23 15   100.89     LegendNANA
02:00 15.1 12.5 85 20 25   100.81     LegendNANA
03:00 14.6 12.4 86 21 34   100.78     LegendNANA
04:00 14.1 11.7 86 22 30   100.78     LegendNANA
05:00 13.8 11.5 86 21 29   100.70     LegendNANA
06:00 14.2 12.1 87 21 33   100.65     LegendNANA
07:00 14.4 12.4 88 22 24   100.62     LegendNANA
08:00 16.3 13.2 82 23 17   100.67     LegendNANA
09:00 18.0 13.6 76 23 20   100.68     LegendNANA
10:00 17.8 13.6 77 27 13   100.68     LegendNANA
11:00 18.2 14.0 76 26 16   100.69     LegendNANA
12:00 18.5 14.1 76 25 13   100.70     LegendNANA
13:00 16.9 12.0 73 31 22   100.71     LegendNANA
14:00 17.1 9.0 59 31 24   100.79     LegendNANA
15:00 17.4 8.9 57 30 21   100.76     LegendNANA
16:00 16.8 9.5 62 31 15   100.81     LegendNANA
17:00 15.0 9.0 67 27 6   100.85     LegendNANA
18:00 13.0 8.2 73 26 3   100.90     LegendNANA
19:00 10.9 8.0 82 30 4   100.93     LegendNANA
20:00 10.0 7.5 84 34 9   100.99     LegendNANA
21:00 10.0 7.1 82 34 3   101.03     LegendNANA
22:00 9.0 6.7 85 34 7   100.99     LegendNANA
23:00 8.6 6.4 86 32 4   101.02     LegendNANA

Notes on Data Quality.

Legend

  • E = Estimated
  • M = Missing
  • NA = Not Available
  • ‡ = Partner data that is not subject to review by the National Climate Archives
Date modified: